Overview Statistics Trail Chart Weather Telemetry Raw packets
 

This is the latest recevied weather packets stored in our database for station/object W7BTL. If no packets are shown the sender has not sent any weather packets the latest 10 day(s).

<< 63 64 65 66 67 68 69 >>
Time Temp. Humidity Pressure Rain* Wind** Luminosity Snow
1788218115 30.56° C 46% 1011.7 hPa 0 mm - 496 W/m² -
1788217810 31.11° C 45% 1011.7 hPa 0 mm - 517 W/m² -
1788217505 31.11° C 44% 1011.8 hPa 0 mm - 538 W/m² -
1788217205 31.11° C 45% 1011.8 hPa 0 mm - 558 W/m² -
1788216901 31.11° C 45% 1011.6 hPa 0 mm - 583 W/m² -
1788216595 30.56° C 47% 1011.8 hPa 0 mm - 603 W/m² -
1788216295 30.56° C 47% 1011.8 hPa 0 mm - 622 W/m² -
1788215989 30.56° C 46% 1011.9 hPa 0 mm - 641 W/m² -
1788215685 31.11° C 46% 1012.1 hPa 0 mm - 664 W/m² -
1788215382 31.11° C 46% 1011.9 hPa 0 mm - 680 W/m² -
1788215078 31.67° C 44% 1011.9 hPa 0 mm - 698 W/m² -
1788214778 31.67° C 45% 1011.9 hPa 0 mm - 713 W/m² -
1788214474 31.67° C 45% 1012.1 hPa 0 mm - 726 W/m² -
1788214169 32.22° C 43% 1012.1 hPa 0 mm - 744 W/m² -
1788213864 31.67° C 45% 1011.9 hPa 0 mm - 758 W/m² -
1788213559 32.22° C 45% 1012.1 hPa 0 mm - 775 W/m² -
1788213255 32.22° C 45% 1012.4 hPa 0 mm - 800 W/m² -
1788212951 32.22° C 45% 1012.2 hPa 0 mm - 809 W/m² -
1788212649 32.22° C 45% 1012.2 hPa 0 mm - 819 W/m² -
1788212344 32.22° C 46% 1012.4 hPa 0 mm - 832 W/m² -
1788212041 31.67° C 46% 1012.4 hPa 0 mm - 847 W/m² -
1788211741 31.67° C 47% 1012.5 hPa 0 mm - 855 W/m² -
1788211437 31.67° C 45% 1012.8 hPa 0 mm - 877 W/m² -
1788211136 32.22° C 45% 1012.5 hPa 0 mm - 889 W/m² -
1788210836 32.22° C 44% 1012.5 hPa 0 mm - 896 W/m² -

* Rain latest hour (hover to see other rain measurements)
** Current wind speed in m/s (hover to see current wind gust speed)